Location: The D'Auria's Ocala Star Observatory
(29.0276°N, 82.1742°W)
Time: 20:19:31
(UTC-04:00)

Daily predictions for brighter satellites

Satellite Brightness Start Highest point End
(mag) Time Altitude Azimuth Time Altitude Azimuth Time Altitude Azimuth
ASTEX 1 3.5 20:50:35 10° S 20:55:27 87° WSW 21:00:23 10° N
Tiangong 1 3.8 20:55:24 10° WNW 20:57:30 19° NNW 20:59:35 10° NNE
Cosmos 2219 Rocket 2.5 20:52:16 10° N 20:57:48 53° ENE 21:03:16 10° SE
Cosmos 2333 Rocket 2.7 20:54:21 10° N 20:59:44 43° ENE 21:05:03 10° SE
DELTA 2 R/B (1) 3.7 20:56:46 10° WNW 21:02:24 84° NNE 21:08:02 10° ESE
Orbus 7S? 4.4 20:58:07 10° NW 21:03:11 43° WSW 21:06:03 10° S
Aureole 2 Rocket 3.9 21:02:23 10° N 21:05:50 27° ENE 21:09:01 10° SE
Envisat 3.6 21:02:44 10° SE 21:07:24 39° ENE 21:12:05 10° N
H-2A R/B 3.8 21:05:23 10° S 21:08:59 46° W 21:12:40 10° NNW
Meteor 1-29 3.9 21:11:45 10° NE 21:14:45 28° E 21:17:47 10° SSE
USA 186 0.9 21:13:42 10° SSE 21:16:09 69° ENE 21:18:29 10° N
Cosmos 2082 3.9 21:12:18 10° SSW 21:17:54 79° WNW 21:23:33 10° NNE
Cosmos 1140 Rocket 3.4 21:12:46 10° S 21:17:54 68° ESE 21:23:01 10° NNE
NOSS 0 Rocket 4.0 21:14:07 10° NNW 21:20:19 65° ENE 21:26:16 11° SSE
Cosmos 2297 Rocket 2.5 21:18:56 10° SSW 21:24:32 73° WNW 21:30:12 10° NNE
Meteor 2-15 4.4 21:18:47 10° S 21:24:44 63° E 21:30:42 10° NNE
Resurs 01 Rocket 2.3 21:21:58 10° S 21:26:16 55° W 21:30:36 10° NNW
H-2A R/B 4.1 20:56:08 10° WNW 21:29:10 37° SW 21:34:21 11° SSE
Cosmos 1939 Rocket 3.2 21:27:17 14° SSE 21:30:24 48° ENE 21:34:16 10° N
H-2A ROCKET BODY 2.5 21:28:49 10° SSW 21:30:50 20° SE 21:32:27 16° ESE
Cosmos 1867 3.8 21:27:09 10° S 21:32:18 47° ESE 21:37:30 10° NE
Cosmos 1340 Rocket 2.7 21:37:00 10° S 21:40:57 70° E 21:44:58 10° NNE
Delta 2 Rocket 4.5 21:36:24 10° SW 21:41:43 42° SSE 21:47:09 10° E
Spot 1 4.0 21:42:22 21° SSE 21:44:57 60° ENE 21:49:02 10° N
ATLAS 5 CENTAUR R/B 1.8 21:40:46 10° SSW 21:45:17 77° WNW 21:50:07 10° NNE
Cosmos 1934 Rocket 4.4 21:42:32 10° NNW 21:48:35 63° W 21:54:32 10° S
SJ-11-01 4.2 21:44:54 16° SSE 21:48:43 83° ENE 21:53:29 10° N
Cosmos 1980 3.7 21:43:49 10° NNW 21:49:32 88° WSW 21:53:46 18° SSE
Cosmos 1850 Rocket 3.9 21:44:25 10° S 21:49:32 77° ESE 21:54:43 10° NNE
Cosmos 2084 3.3 21:47:35 10° SSW 21:51:44 82° WNW 21:55:40 10° NNE
Cosmos 614 Rocket 4.4 21:46:55 10° SSW 21:52:05 66° WNW 21:57:15 10° N
YAOGAN 6 2.7 21:51:00 30° SE 21:52:31 58° ENE 21:56:06 10° N
Skynet4D Del rocket 3.9 21:47:30 10° W 21:53:19 69° S 21:57:37 23° ESE
Helios 1A 3.0 21:52:06 19° S 21:55:00 82° WSW 21:59:09 10° NNW
CZ-4B DEB 2.4 21:54:45 43° SSE 21:55:33 75° ENE 21:58:31 10° N
Palapa 6 Rocket 3.7 21:51:41 10° WSW 21:56:26 38° S 21:57:44 31° SE
GPS 2-05 Rocket1 3.8 21:54:13 10° SW 21:56:03 26° SSW 21:56:03 26° SSW
Cosmos 1605 Rocket 4.1 21:52:43 10° N 21:59:00 79° W 22:05:01 12° S
Cosmos 2237 Rocket 2.3 21:54:17 10° NNW 21:59:54 77° WSW 22:03:42 21° S
CZ-3B R/B 3.7 21:58:07 10° SW 22:00:20 54° NW 22:05:40 10° NE
Helios 1B rocket 3.6 21:56:24 10° N 22:00:20 43° WNW 22:04:15 10° SW
H-2A R/B 3.7 22:00:47 17° E 22:02:00 18° ENE 22:05:28 10° NNE
USA 234 3.3 21:55:48 10° NE 22:02:22 85° NW 22:08:54 10° SW
ERS-1 Rocket 3.2 22:01:43 30° SE 22:03:51 50° ENE 22:08:43 10° N
Cosmos 1842 Rocket 4.1 22:00:42 10° NNW 22:04:59 57° W 22:08:11 17° SSW
Atlas Centaur 2 1.0 22:01:56 10° W 22:05:33 76° N 22:06:40 41° E
USA 142 4.0 21:57:54 10° W 22:06:20 82° S 22:08:05 33° ESE
Sakura Rocket 4.0 22:01:41 10° WSW 22:10:03 80° S 22:14:11 22° E
Cosmos 1674 2.5 22:12:37 46° S 22:13:39 79° E 22:17:25 10° N
Cosmos 1741 Rocket 4.5 22:08:33 10° SSW 22:13:48 62° WNW 22:19:04 10° N
Cosmos 1802 Rocket 4.5 22:08:40 10° NNE 22:14:23 40° E 22:16:09 33° ESE
Cosmos 1818 4.5 22:09:45 10° N 22:14:41 35° ENE 22:16:16 29° E
OAO 3 Rocket 4.1 22:11:32 10° W 22:15:42 32° SSW 22:16:41 29° S
Cosmos 1908 3.4 22:16:20 10° N 22:20:03 50° ENE 22:20:03 50° ENE
ARGOS 3.6 22:20:19 37° ESE 22:21:43 46° ENE 22:26:51 10° N
SL-16 R/B 2.2 22:17:47 10° NNW 22:23:24 65° ENE 22:25:09 43° SE
Cosmos 1408 Rocket 3.5 22:23:35 56° ESE 22:23:51 57° E 22:28:04 10° NNE
MetOp-A 4.1 22:22:20 42° SE 22:24:04 65° ENE 22:29:22 10° N
SEDSat Delta rocket 3.2 22:19:58 10° W 22:24:07 46° SSW 22:24:14 46° SSW
KORONAS-FOTON 3.7 22:24:13 67° E 22:24:13 67° E 22:27:56 10° NNE
Meteor 2-17 Rocket 4.4 22:20:52 10° N 22:26:59 66° E 22:29:08 41° SSE
Cosmos 1356 Rocket 3.6 22:27:26 35° SSW 22:29:04 70° W 22:33:20 10° N
Cosmos 1076 Rocket 3.8 22:27:30 32° SSW 22:29:26 67° W 22:33:47 10° N
NOSS 3-4 (A) 3.9 22:22:54 10° NNW 22:30:09 82° WSW 22:33:42 35° SSE
NOSS 3-4 (C) 3.9 22:22:59 10° NNW 22:30:15 83° WSW 22:33:47 36° SSE
Terra 3.7 22:36:22 16° ENE 22:36:22 16° ENE 22:38:47 10° NNE
Cosmos 2333 Rocket 4.4 22:39:50 10° WNW 22:43:32 18° W 22:47:13 10° SW
Cosmos 2016 Rocket 4.0 22:40:14 10° N 22:46:26 64° E 22:47:32 55° SE
Cosmos 2221 3.4 22:43:33 10° NNW 22:47:44 45° W 22:48:41 39° SW
NOAA 11 4.4 22:46:09 42° SSW 22:47:50 64° WSW 22:53:14 10° NNW
Cosmos 2208 Rocket 3.9 22:48:25 10° NNW 22:53:47 84° WSW 22:54:25 70° S
SL-08 RB Rocket 3.7 22:56:04 78° NNE 22:56:04 78° NNE 23:00:21 10° N
Cosmos 1486 Rocket 4.3 22:57:03 51° ENE 22:57:03 51° ENE 23:01:22 10° NNE
SPOT 1/Viking Rocket 3.5 22:56:35 67° ENE 22:56:36 67° ENE 23:01:41 10° N
YAOGAN 11 4.2 22:58:18 74° WNW 22:58:18 74° WNW 23:02:38 10° NNW
Cosmos 1766 Rocket 4.4 22:58:37 40° WSW 22:59:18 44° W 23:03:26 10° N
RESURS DK-1 4.1 22:57:00 10° N 22:59:21 24° NNE 22:59:21 24° NNE
Cosmos 1242 Rocket 4.0 22:59:42 10° NNW 23:02:30 36° WNW 23:02:30 36° WNW
EO 1 Delta rocket 3.9 23:04:00 75° NNE 23:04:00 75° NNE 23:08:18 10° N
Meteor 2-2 Rocket 4.2 23:01:20 10° N 23:07:08 69° E 23:07:11 69° E
Cosmos 1570 Rocket 4.5 23:03:07 10° NNW 23:08:14 51° WSW 23:08:43 50° WSW
Milstar 3 Cent rocket 4.0 23:04:07 10° W 23:12:36 66° SSW 23:18:44 41° SE
H-2A R/B 3.9 23:17:20 23° NNE 23:17:20 23° NNE 23:19:24 10° N
Cosmos 1743 Rocket 4.5 23:16:54 45° NNW 23:16:54 45° NNW 23:20:01 10° N
Cosmos 2228 Rocket 4.1 23:11:16 10° N 23:14:28 43° NNE 23:14:28 43° NNE
Cosmos 2263 Rocket 2.6 23:21:43 53° NE 23:21:43 53° NE 23:25:59 10° NNE
Cosmos 1447 Rocket 4.4 23:24:35 74° ENE 23:24:35 74° ENE 23:30:41 10° N
Delta 2 Rocket 4.3 23:18:45 10° WSW 23:24:31 69° NNW 23:25:01 65° NNE
SPOT 5 4.0 23:28:20 35° W 23:28:20 35° W 23:32:35 10° NNW
SL-19 R/B 4.4 23:26:20 10° NNE 23:30:49 64° NNE 23:30:49 64° NNE
Meteor 2-10 4.5 23:32:37 10° NNW 23:37:39 66° NW 23:37:39 66° NW
Lacrosse 5 3.1 23:34:29 10° NNW 23:38:08 36° NNE 23:38:08 36° NNE
H-2A R/B 3.0 23:41:25 42° W 23:41:25 42° W 23:46:03 10° NNW
Cosmos 371 Rocket 4.5 23:41:19 10° NNW 23:44:22 39° NNW 23:44:22 39° NNW
Cosmos 1603 4.3 23:44:50 10° NNW 23:49:18 52° WNW 23:49:18 52° WNW
